This is the latest recevied weather packets stored in our database for station/object KA3RQR. If no packets are shown the sender has not sent any weather packets the latest 10 day(s).
| Time | Temp. | Humidity | Pressure | Rain* | Wind** | Luminosity | Snow |
|---|---|---|---|---|---|---|---|
| 1778071349 | 15.56° C | 96% | 1010.1 hPa | 0 mm | - | 18 W/m² | - |
| 1778071046 | 15.56° C | 96% | 1010.1 hPa | 0 mm | - | 18 W/m² | - |
| 1778070745 | 15.56° C | 95% | 1010.1 hPa | 0 mm | - | 13 W/m² | - |
| 1778070441 | 15.56° C | 95% | 1009.8 hPa | 1.78 mm | - | 17 W/m² | - |
| 1778070139 | 16.11° C | 94% | 1010.3 hPa | 1.78 mm | - | 15 W/m² | - |
| 1778069837 | 16.11° C | 92% | 1010.1 hPa | 0 mm | - | 19 W/m² | - |
| 1778069533 | 16.67° C | 91% | 1010.4 hPa | 1.78 mm | - | 10 W/m² | - |
| 1778069230 | 16.67° C | 88% | 1010.7 hPa | 3.05 mm | - | 11 W/m² | - |
| 1778068928 | 16.67° C | 87% | 1010.7 hPa | 1.27 mm | - | 7 W/m² | - |
| 1778068626 | 17.22° C | 86% | 1010.9 hPa | 0 mm | - | 9 W/m² | - |
| 1778068324 | 17.22° C | 85% | 1010.7 hPa | 0 mm | - | 9 W/m² | - |
| 1778068021 | 17.22° C | 84% | 1011 hPa | 0 mm | - | 10 W/m² | - |
| 1778067719 | 17.22° C | 84% | 1010.7 hPa | 0 mm | - | 10 W/m² | - |
| 1778067417 | 17.22° C | 83% | 1010.7 hPa | 0 mm | - | 15 W/m² | - |
| 1778067114 | 17.78° C | 81% | 1010.4 hPa | 0 mm | - | 10 W/m² | - |
| 1778066810 | 17.78° C | 80% | 1010.4 hPa | 0 mm | - | 7 W/m² | - |
| 1778066508 | 17.78° C | 80% | 1010.1 hPa | 0 mm | - | 8 W/m² | - |
| 1778066205 | 17.78° C | 80% | 1010.2 hPa | 0 mm | - | 10 W/m² | - |
| 1778065903 | 17.78° C | 79% | 1010 hPa | 0 mm | - | 15 W/m² | - |
| 1778065600 | 17.78° C | 78% | 1009.9 hPa | 0 mm | - | 12 W/m² | - |
| 1778065297 | 17.78° C | 78% | 1009.9 hPa | 0 mm | - | 11 W/m² | - |
| 1778064994 | 17.78° C | 78% | 1010.1 hPa | 0 mm | - | 9 W/m² | - |
| 1778064691 | 17.78° C | 77% | 1010.1 hPa | 0 mm | - | 12 W/m² | - |
| 1778064389 | 17.78° C | 77% | 1009.8 hPa | 0 mm | - | 13 W/m² | - |
| 1778064086 | 17.78° C | 76% | 1009.8 hPa | 0 mm | - | 7 W/m² | - |
* Rain latest hour (hover to see other rain measurements)
** Current wind speed in m/s (hover to see current wind gust speed)